Back to catalog

ICEYE-X50

AliveScienceSSO
NORAD 63255·PAYLOAD·🇫🇮 Finland

Launched Mar 15, 2025 from Vandenberg Space Force Base

Loading…

Next Passes (next 24 hours)

TLE

FreshSource: Space-Track

Epoch: Sep 14, 2026, 14:53 UTC

1 63255U 25052AX  26257.62061297  .00000949  00000-0  90776-4 0  9995
2 63255  97.6744 147.7464 0000431 298.9579  61.1599 14.95515146 82013

Track ICEYE-X50 in real time with AllMySat

Download on the App Store